[[{"header":{"parameterUnit":"m.s-1","parameterCategory":1,"la1":30.2991,"la2":30.254,"lo1":-89.0895,"lo2":-89.0444,"dy":0.0017,"dx":0.0017,"nx":28,"ny":28,"refTime":"2025-07-08T21:00:00:Z","depth":0,"parameterNumber":2,"parameterNumberName":"U-component_of_WINDS"},"data":[0,0,0,0,0,0,0,0,0,0,0,0,0,0,0,0,0,0,0,0,0,0,0,0,0,0,0,0,0,0,0,0,0,0,0,0,0,0,0,0,0,0,0,0,0,0,0,0,0,0,0,0,0,0,0,0,0,0,3.3908,3.3909,0,3.4032,3.4033,3.4034,3.399,3.3987,3.3984,3.3982,3.4112,3.4118,3.4124,0,0,0,0,0,0,0,0,0,0,0,0,0,3.3633,3.3638,3.3907,3.3909,3.391,3.4031,3.4033,3.4035,3.399,3.3987,3.3983,3.398,3.411,3.4117,3.4124,0,0,0,0,0,0,0,0,0,0,0,0,0,3.3754,3.364,3.3907,3.3903,3.3904,3.4031,3.4033,3.4035,3.3991,3.3987,3.3983,3.3979,3.4107,3.4116,3.4125,3.4265,0,0,3.4153,3.4157,0,0,0,0,0,0,0,0,3.3747,3.3764,3.3902,3.3903,3.3904,3.3991,3.3984,3.4113,3.3992,3.3958,3.3981,3.3977,3.4075,3.4087,3.4119,3.4272,3.4277,3.4154,3.4159,3.4163,3.4166,0,0,0,0,0,0,0,3.3739,3.3759,3.3957,3.3904,3.3906,3.3895,3.3908,3.4008,3.4039,3.3961,3.3958,3.3973,3.4075,3.4111,3.4122,3.4279,3.4154,3.4162,3.4167,3.4171,3.455,3.4554,0,0,0,0,0,0,3.373,3.3752,3.3953,3.396,3.3814,3.3903,3.3917,3.3967,3.4037,3.4044,3.3976,3.397,3.4097,3.4111,3.4126,3.4293,3.4163,3.4172,3.4177,3.4545,3.4551,3.4556,0,0,0,0,0,0,3.3724,3.3748,3.3948,3.3855,3.388,3.3912,3.3969,3.3972,3.4007,3.4049,3.4055,3.4007,3.4094,3.4114,3.423,3.4297,3.4176,3.4184,3.454,3.4547,3.4553,3.4629,0,0,0,0,0,0,3.3716,3.3746,3.38,3.3857,3.3885,3.4049,3.3973,3.3978,3.4023,3.4016,3.4079,3.4086,3.4093,3.4217,3.4239,3.4307,3.4191,3.4534,3.4543,3.4551,3.4621,3.4638,3.4652,0,0,0,0,0,3.3707,3.3817,3.3803,3.3827,3.3952,3.4053,3.407,3.4074,3.4029,3.4082,3.4109,3.4084,3.4286,3.4229,3.4254,3.4326,3.453,3.4541,3.4551,3.4614,3.4634,3.4652,0,0,0,0,0,0,3.3769,3.3825,3.3809,3.3942,3.3993,3.4046,3.4114,3.4096,3.4163,3.4154,3.4158,3.4172,3.4292,3.4321,3.4256,3.4464,3.4401,3.4417,3.4441,3.4461,3.4476,3.4466,3.4199,0,0,0,0,0,3.3798,3.3874,3.3919,3.4032,3.4058,3.4082,3.4126,3.4125,3.4178,3.42,3.4235,3.4289,3.4364,3.4414,3.4486,3.4625,3.4637,3.4686,3.4702,3.4715,3.4728,3.4801,3.4823,3.459,3.459,3.459,0,0,3.3859,3.3899,3.3947,3.4045,3.4085,3.4164,3.41,3.4188,3.4246,3.4214,3.4325,3.4353,3.4413,3.4541,3.4599,3.4569,3.4795,3.4728,3.4738,3.4744,3.4814,3.4836,3.4856,3.4597,3.4596,3.4595,0,0,3.401,3.4048,3.4145,3.4185,3.4245,3.426,3.4283,3.4338,3.4355,3.4466,3.4443,3.4513,3.4644,3.4687,3.4726,3.4891,3.487,3.4914,3.4996,3.5068,3.5086,3.5102,3.5159,3.518,3.4928,3.4928,3.4928,0,3.4078,3.4196,3.4197,3.4285,3.4329,3.4301,3.4399,3.4438,3.452,3.455,3.4515,3.4676,3.4715,3.4851,3.4891,3.4924,3.495,3.4907,3.5083,3.5099,3.5115,3.5169,3.5191,3.4933,3.4932,3.4932,3.4931,0,3.4276,3.4358,3.4429,3.4505,3.4557,3.465,3.4665,3.4717,3.4711,3.4729,3.4842,3.4888,3.4967,3.4999,3.4996,3.5135,3.5114,3.5081,3.5018,3.5142,3.5193,3.5214,3.494,3.4938,3.4937,3.4935,0,0,3.4471,3.4545,3.4571,3.4604,3.4668,3.4731,3.4822,3.4898,3.4942,3.4999,3.5074,3.5184,3.5153,3.5198,3.5198,3.5261,3.5386,3.522,3.5221,3.5248,3.554,3.5563,3.5587,3.5372,3.5376,3.538,3.5534,0,3.4626,3.4784,3.4787,3.4932,3.5007,3.4981,3.506,3.5107,3.5126,3.5193,3.5214,3.5291,3.5245,3.5271,3.5332,3.5358,3.5444,3.5347,3.5442,3.5446,3.5427,3.5614,3.564,3.5784,3.5554,3.5558,3.556,0,3.4828,3.4888,3.504,3.509,3.5122,3.5193,3.5261,3.5325,3.5378,3.5387,3.5436,3.5426,3.5518,3.5453,3.5579,3.5513,3.5552,3.557,3.5576,3.5584,3.551,3.5626,3.583,3.5851,3.5592,3.559,3.5587,0,3.4952,3.5072,3.5178,3.5208,3.5269,3.5319,3.5347,3.5395,3.544,3.5501,3.553,3.5601,3.564,3.5695,3.5705,3.5656,3.5831,3.5767,3.5841,3.5841,3.5879,3.5876,3.609,3.5906,3.5906,3.5905,3.5905,0,3.5124,3.5218,3.5234,3.5299,3.5403,3.5405,3.5508,3.5532,3.5575,3.5644,3.5627,3.5693,3.5702,3.577,3.5778,3.588,3.5899,3.5908,3.5909,3.5909,3.5908,3.5934,3.5924,3.5911,3.591,3.5909,3.5908,0,3.5281,3.5296,3.5409,3.5457,3.5471,3.5545,3.5586,3.5648,3.5665,3.5752,3.5773,3.5799,3.5878,3.5893,3.5987,3.5992,3.6113,3.6105,3.6095,3.6094,3.6166,3.6159,3.6404,3.6435,3.6233,3.6235,3.6236,0,3.5389,3.546,3.5515,3.5559,3.5589,3.5661,3.5706,3.571,3.5758,3.5822,3.5876,3.5952,3.6013,3.614,3.6168,3.6238,3.6231,3.6312,3.6241,3.6238,3.623,3.6225,3.6231,3.6325,3.6327,3.6329,3.633,0,3.5579,3.5582,3.5647,3.5714,3.5767,3.5821,3.5871,3.5909,3.592,3.5974,3.6053,3.61,3.6194,3.627,3.634,3.6369,3.6352,3.6352,3.6373,3.6373,3.6363,3.6368,3.613,3.6347,3.6345,3.6344,3.6343,3.6342,3.5714,3.5775,3.5822,3.5894,3.5932,3.5979,3.6038,3.6061,3.6127,3.6202,3.6201,3.6288,3.6337,3.6429,3.6462,3.6529,3.6504,3.6534,3.6542,3.6549,3.6555,3.6353,3.6543,3.6542,3.6542,3.6541,3.6541,0,3.5901,3.593,3.5996,3.6066,3.6122,3.6099,3.6153,3.6202,3.6278,3.6324,3.6384,3.6474,3.6546,3.6579,3.665,3.6698,3.6691,3.6716,3.6712,3.6719,3.6575,3.6549,3.672,3.672,3.672,3.672,3.672,3.672,3.6005,3.6106,3.6115,3.6234,3.6262,3.6345,3.6377,3.642,3.6457,3.6557,3.6617,3.6637,3.6677,3.6751,3.6816,3.6824,3.685,3.6879,3.6883,3.6747,3.6729,3.6712,3.6687,3.6885,3.6885,3.7021,3.7022,3.7023]},{"header":{"parameterUnit":"m.s-1","parameterCategory":1,"la1":30.2991,"la2":30.254,"lo1":-89.0895,"lo2":-89.0444,"dy":0.0017,"dx":0.0017,"nx":28,"ny":28,"refTime":"2025-07-08T21:00:00:Z","depth":0,"parameterNumber":3,"parameterNumberName":"V-component_of_WINDS"},"data":[0,0,0,0,0,0,0,0,0,0,0,0,0,0,0,0,0,0,0,0,0,0,0,0,0,0,0,0,0,0,0,0,0,0,0,0,0,0,0,0,0,0,0,0,0,0,0,0,0,0,0,0,0,0,0,0,0,0,-0.396,-0.3961,0,-0.4043,-0.4044,-0.4045,-0.4089,-0.4089,-0.4089,-0.4089,-0.4173,-0.4175,-0.4177,0,0,0,0,0,0,0,0,0,0,0,0,0,-0.3839,-0.3841,-0.396,-0.3961,-0.3962,-0.4043,-0.4044,-0.4045,-0.4088,-0.4089,-0.4089,-0.4089,-0.4172,-0.4175,-0.4177,0,0,0,0,0,0,0,0,0,0,0,0,0,-0.3903,-0.3841,-0.396,-0.3993,-0.3997,-0.4043,-0.4044,-0.4046,-0.4088,-0.4089,-0.4089,-0.4089,-0.4171,-0.4175,-0.4178,-0.4196,0,0,-0.4188,-0.4189,0,0,0,0,0,0,0,0,-0.39,-0.3908,-0.3988,-0.3991,-0.3996,-0.4056,-0.4032,-0.4096,-0.4088,-0.4054,-0.4089,-0.4089,-0.4134,-0.414,-0.4156,-0.42,-0.4204,-0.4188,-0.419,-0.4191,-0.4192,0,0,0,0,0,0,0,-0.3895,-0.3905,-0.3993,-0.3989,-0.3994,-0.4004,-0.4014,-0.4045,-0.4092,-0.4057,-0.406,-0.4069,-0.4136,-0.4152,-0.4158,-0.4205,-0.4188,-0.4191,-0.4193,-0.4194,-0.427,-0.427,0,0,0,0,0,0,-0.3885,-0.39,-0.399,-0.3996,-0.3947,-0.4006,-0.4017,-0.4036,-0.4092,-0.4101,-0.4069,-0.4071,-0.4147,-0.4154,-0.4161,-0.4187,-0.4191,-0.4195,-0.4196,-0.427,-0.427,-0.427,0,0,0,0,0,0,-0.3883,-0.3893,-0.3987,-0.3949,-0.3962,-0.4008,-0.403,-0.4038,-0.4054,-0.4102,-0.411,-0.4077,-0.4147,-0.4156,-0.4187,-0.419,-0.4196,-0.4199,-0.427,-0.427,-0.427,-0.4238,0,0,0,0,0,0,-0.3879,-0.3892,-0.3899,-0.3949,-0.3964,-0.4012,-0.403,-0.4039,-0.406,-0.4063,-0.4111,-0.4119,-0.4148,-0.4182,-0.4191,-0.4195,-0.4202,-0.427,-0.427,-0.427,-0.4239,-0.4237,-0.4235,0,0,0,0,0,-0.3874,-0.3886,-0.3899,-0.391,-0.3974,-0.4012,-0.4021,-0.4053,-0.406,-0.4068,-0.4098,-0.4118,-0.4189,-0.4185,-0.4195,-0.42,-0.427,-0.427,-0.427,-0.424,-0.4238,-0.4236,0,0,0,0,0,0,-0.3835,-0.3893,-0.3908,-0.3937,-0.3969,-0.4019,-0.403,-0.405,-0.4081,-0.4082,-0.4122,-0.4132,-0.416,-0.4183,-0.4178,-0.4222,-0.4231,-0.4233,-0.4205,-0.4203,-0.4201,-0.4195,-0.4204,0,0,0,0,0,-0.383,-0.3856,-0.3906,-0.3926,-0.3942,-0.3983,-0.4001,-0.4024,-0.4059,-0.4072,-0.4105,-0.4138,-0.4168,-0.4187,-0.4217,-0.4243,-0.4254,-0.4252,-0.425,-0.4248,-0.4249,-0.4265,-0.4265,-0.427,-0.427,-0.427,0,0,-0.3819,-0.3854,-0.3868,-0.3919,-0.3947,-0.3973,-0.3994,-0.4021,-0.4041,-0.4076,-0.4108,-0.4133,-0.4173,-0.4202,-0.4216,-0.4222,-0.425,-0.4248,-0.4246,-0.4249,-0.4265,-0.4265,-0.4264,-0.427,-0.427,-0.427,0,0,-0.3813,-0.3842,-0.3863,-0.389,-0.3932,-0.396,-0.3965,-0.4013,-0.4031,-0.4063,-0.4091,-0.4115,-0.4165,-0.4193,-0.4213,-0.4219,-0.4238,-0.4228,-0.4218,-0.4233,-0.4233,-0.4232,-0.4235,-0.4235,-0.4229,-0.4229,-0.4229,0,-0.3794,-0.3835,-0.3871,-0.3896,-0.3918,-0.3952,-0.3973,-0.3998,-0.4048,-0.4062,-0.4068,-0.4133,-0.4162,-0.4198,-0.42,-0.4215,-0.4222,-0.4222,-0.423,-0.423,-0.423,-0.4233,-0.4234,-0.4227,-0.4227,-0.4227,-0.4228,0,-0.381,-0.3838,-0.385,-0.3898,-0.3921,-0.3944,-0.3983,-0.4002,-0.4023,-0.405,-0.4083,-0.4119,-0.4158,-0.4168,-0.4188,-0.4207,-0.421,-0.4222,-0.4233,-0.4228,-0.4231,-0.4232,-0.4225,-0.4225,-0.4226,-0.4226,0,0,-0.3781,-0.3849,-0.3852,-0.3875,-0.3924,-0.3947,-0.3972,-0.401,-0.4026,-0.4059,-0.4081,-0.4124,-0.4136,-0.4159,-0.4183,-0.4197,-0.42,-0.4208,-0.421,-0.4206,-0.4223,-0.4214,-0.4214,-0.4213,-0.4213,-0.4213,-0.422,0,-0.3782,-0.3829,-0.3862,-0.3896,-0.3923,-0.3956,-0.3978,-0.401,-0.4037,-0.4063,-0.4092,-0.4122,-0.4136,-0.415,-0.4165,-0.4196,-0.4204,-0.4196,-0.4234,-0.4235,-0.4223,-0.4216,-0.4206,-0.421,-0.4222,-0.4222,-0.4222,0,-0.3789,-0.3822,-0.3859,-0.3906,-0.3919,-0.3938,-0.3976,-0.4001,-0.4039,-0.4057,-0.4084,-0.4109,-0.4137,-0.4145,-0.4185,-0.4179,-0.4197,-0.4214,-0.4215,-0.422,-0.4228,-0.4221,-0.4213,-0.4213,-0.4224,-0.4224,-0.4224,0,-0.3764,-0.3818,-0.3847,-0.3865,-0.3921,-0.3934,-0.3958,-0.3997,-0.4018,-0.4051,-0.4065,-0.4101,-0.4121,-0.4148,-0.4182,-0.4185,-0.4219,-0.4229,-0.4235,-0.4234,-0.424,-0.4239,-0.4235,-0.4251,-0.4251,-0.4251,-0.4251,0,-0.3762,-0.3783,-0.3837,-0.3855,-0.388,-0.3918,-0.3942,-0.3969,-0.4003,-0.4027,-0.4057,-0.4079,-0.4123,-0.415,-0.4176,-0.4206,-0.4214,-0.423,-0.4237,-0.4227,-0.4225,-0.4239,-0.424,-0.4251,-0.4251,-0.4251,-0.4251,0,-0.3738,-0.3775,-0.3809,-0.386,-0.3873,-0.389,-0.3933,-0.3952,-0.398,-0.401,-0.4019,-0.4064,-0.4098,-0.4134,-0.418,-0.4198,-0.4226,-0.4236,-0.4213,-0.4217,-0.422,-0.422,-0.4225,-0.4228,-0.4241,-0.4241,-0.4241,0,-0.3734,-0.3752,-0.3805,-0.3823,-0.3846,-0.3876,-0.3898,-0.3936,-0.3958,-0.4003,-0.4017,-0.4053,-0.4084,-0.4136,-0.4173,-0.4208,-0.4219,-0.4218,-0.4224,-0.4215,-0.422,-0.4218,-0.422,-0.4216,-0.4216,-0.4216,-0.4216,0,-0.3724,-0.3741,-0.3772,-0.3809,-0.3835,-0.3866,-0.3898,-0.3912,-0.3957,-0.398,-0.4015,-0.4039,-0.4086,-0.4122,-0.4162,-0.4187,-0.4209,-0.4214,-0.4217,-0.4207,-0.4193,-0.4201,-0.4208,-0.4213,-0.4213,-0.4214,-0.4214,-0.4214,-0.371,-0.3727,-0.3767,-0.3801,-0.383,-0.3859,-0.388,-0.3911,-0.3941,-0.3983,-0.4004,-0.4039,-0.4078,-0.4135,-0.4159,-0.4187,-0.4194,-0.4198,-0.42,-0.42,-0.4198,-0.4189,-0.4195,-0.4195,-0.4195,-0.4195,-0.4195,0,-0.3701,-0.3729,-0.3759,-0.3804,-0.383,-0.3849,-0.3887,-0.3907,-0.3938,-0.3973,-0.4003,-0.4044,-0.4079,-0.4118,-0.4156,-0.4171,-0.4182,-0.418,-0.4179,-0.4185,-0.4189,-0.4183,-0.417,-0.417,-0.417,-0.417,-0.417,-0.417,-0.3699,-0.373,-0.3752,-0.3798,-0.3826,-0.3861,-0.388,-0.3908,-0.3936,-0.3981,-0.401,-0.4036,-0.4073,-0.4114,-0.4147,-0.4158,-0.417,-0.4165,-0.4178,-0.4182,-0.4184,-0.4186,-0.418,-0.4167,-0.4167,-0.4172,-0.4172,-0.4172]}]]